Weather History for Key West, FL

Change the Weather History Date:

Monday, January 14, 2013

  Actual Average Record
Temperature  
Mean Temperature 77 °F 69 °F  
Max Temperature 80 °F 74 °F 84 °F (1881)
Min Temperature 73 °F 64 °F 47 °F (1981)
Degree Days  
Heating Degree Days 0 1  
Month to date heating degree days 0 14  
Since 1 July heating degree days 4 32  
Cooling Degree Days 12 5  
Month to date cooling degree days 164 72  
Year to date cooling degree days 164 72  
Growing Degree Days 26 (Base 50)    
Moisture  
Dew Point 63 °F    
Average Humidity 66    
Maximum Humidity 73    
Minimum Humidity 58    
Precipitation  
Precipitation 0.00 in 0.07 in 3.16 in (1970)
Month to date precipitation T 0.90  
Year to date precipitation T 0.90  
Snow  
Snow 0.00 in - - ()
Month to date snowfall 0.0  
Since 1 July snowfall 0.0  
Snow Depth 0.00 in    
Sea Level Pressure  
Sea Level Pressure 30.12 in    
Wind  
Wind Speed 13 mph (ESE)    
Max Wind Speed 18 mph    
Max Gust Speed 24 mph    
Visibility 10 miles    
Events      
T = Trace of Precipitation, MM = Missing Value Source: NWS Daily Summary

Daily Weather History Graph

Daily Weather History Graph

Search for Another Location

Airport:

Trip Planner

Search our weather history database for the weather conditions in past years. The results will help you decide how hot, cold, wet, or windy it might be!

Date:

Astronomy

Jan. 14, 2013 Rise Set
Actual Time 7:13 AM EST 5:59 PM EST
Civil Twilight 6:48 AM EST 6:24 PM EST
Nautical Twilight 6:20 AM EST 6:52 PM EST
Astronomical Twilight 5:53 AM EST 7:19 PM EST
Moon 9:10 AM EST (1/14) 9:15 PM EST (1/14)
Length of Visible Light 11h 35m
Length of Day
10h 46m
Waxing Crescent, 11% of the Moon is Illuminated
Jan 14
Waxing Crescent
Jan 18
First Quarter
Jan 26
Full
Feb 3
Last Quarter
Feb 10
New

Hourly Weather History & Observations

Time (EST) Temp. Dew Point Humidity Pressure Visibility Wind Dir Wind Speed Gust Speed Precip Events Conditions
12:53 AM 73.9 °F 62.1 °F 66% 30.11 in 10.0 mi ESE 15.0 mph - N/A   Partly Cloudy
1:53 AM 75.0 °F 60.1 °F 60% 30.12 in 10.0 mi ESE 15.0 mph - N/A   Clear
2:53 AM 75.0 °F 61.0 °F 62% 30.12 in 10.0 mi ESE 15.0 mph - N/A   Scattered Clouds
3:53 AM 75.0 °F 62.1 °F 64% 30.10 in 10.0 mi ESE 12.7 mph - N/A   Clear
4:53 AM 73.9 °F 62.1 °F 66% 30.09 in 10.0 mi SE 13.8 mph - N/A   Clear
5:53 AM 73.0 °F 63.0 °F 71% 30.10 in 10.0 mi SE 15.0 mph - N/A   Clear
6:53 AM 73.9 °F 61.0 °F 64% 30.12 in 10.0 mi ESE 12.7 mph - N/A   Clear
7:53 AM 75.0 °F 61.0 °F 62% 30.13 in 10.0 mi ESE 12.7 mph - N/A   Clear
8:53 AM 75.9 °F 64.0 °F 67% 30.14 in 10.0 mi ESE 15.0 mph - N/A   Clear
9:53 AM 77.0 °F 64.0 °F 64% 30.15 in 10.0 mi SE 12.7 mph - N/A   Partly Cloudy
10:53 AM 79.0 °F 64.0 °F 60% 30.14 in 10.0 mi SE 11.5 mph 19.6 mph N/A   Clear
11:53 AM 79.0 °F 64.0 °F 60% 30.13 in 10.0 mi ESE 10.4 mph - N/A   Scattered Clouds
12:53 PM 79.0 °F 64.9 °F 62% 30.11 in 10.0 mi ESE 13.8 mph - N/A   Partly Cloudy
1:53 PM 78.8 °F 62.6 °F 57% 30.10 in 10.0 mi ESE 13.8 mph - N/A   Clear
2:53 PM 78.8 °F 64.4 °F 61% 30.10 in 10.0 mi ESE 12.7 mph - N/A   Clear
3:53 PM 78.1 °F 64.9 °F 64% 30.11 in 10.0 mi ESE 9.2 mph - N/A   Scattered Clouds
4:53 PM 77.0 °F 64.4 °F 65% 30.12 in 10.0 mi East 11.5 mph - N/A   Clear
5:53 PM 75.0 °F 64.9 °F 71% 30.13 in 10.0 mi East 10.4 mph - N/A   Partly Cloudy
6:53 PM 75.0 °F 64.9 °F 71% 30.14 in 10.0 mi East 12.7 mph - N/A   Clear
7:53 PM 73.9 °F 64.9 °F 73% 30.14 in 10.0 mi East 9.2 mph - N/A   Scattered Clouds
8:53 PM 73.9 °F 64.0 °F 71% 30.14 in 10.0 mi East 6.9 mph - N/A   Clear
9:53 PM 75.0 °F 63.0 °F 66% 30.14 in 10.0 mi East 12.7 mph - N/A   Partly Cloudy
10:53 PM 75.0 °F 63.0 °F 66% 30.13 in 10.0 mi ESE 13.8 mph - N/A   Clear
11:53 PM 73.9 °F 64.9 °F 73% 30.12 in 10.0 mi ESE 13.8 mph - N/A   Partly Cloudy